CW5316 Weather Reports


time (UTC)temp
C
wind
direction
speed
KPH
gust
KPH
rain 1hr
cm
rain 24hr
cm
rain mn
cm
humidity
%
barometer
mb
20260503200041 23 103 1.6 9.7 0.00 0.00 0.00 51 1013.0
20260503195520 23 99 1.6 6.4 0.00 0.00 0.00 50 1013.0
20260503195022 24 19 0.0 4.8 0.00 0.00 0.00 49 1013.0
20260503194543 24 0 0.0 4.8 0.00 0.00 0.00 50 1013.1
20260503194020 23 0 0.0 6.4 0.00 0.00 0.00 50 1013.2
20260503193522 23 0 0.0 6.4 0.00 0.00 0.00 52 1013.2
20260503193042 23 267 1.6 8.0 0.00 0.00 0.00 53 1013.3
20260503192522 23 161 0.0 8.0 0.00 0.00 0.00 53 1013.3
20260503192022 22 60 3.2 12.9 0.00 0.00 0.00 53 1013.4
20260503191538 22 113 1.6 12.9 0.00 0.00 0.00 53 1013.5
20260503191023 22 92 1.6 11.3 0.00 0.00 0.00 53 1013.5
20260503190522 22 0 1.6 8.0 0.00 0.00 0.00 53 1013.5
20260503190041 22 0 1.6 9.7 0.00 0.00 0.00 54 1013.6
20260503185522 22 104 1.6 9.7 0.00 0.00 0.00 54 1013.6
20260503185021 21 56 1.6 9.7 0.00 0.00 0.00 54 1013.6
20260503184555 22 103 1.6 9.7 0.00 0.00 0.00 54 1013.7
20260503184022 22 0 0.0 11.3 0.00 0.00 0.00 55 1013.6
20260503183520 21 268 3.2 11.3 0.00 0.00 0.00 58 1013.8
20260503183041 21 72 3.2 9.7 0.00 0.00 0.00 56 1013.8
20260503182527 21 0 0.0 9.7 0.00 0.00 0.00 58 1013.8
20260503182026 21 94 3.2 11.3 0.00 0.00 0.00 57 1013.8
20260503181540 21 80 3.2 11.3 0.00 0.00 0.00 55 1013.9
20260503181020 21 77 3.2 11.3 0.00 0.00 0.00 55 1013.8
20260503180521 21 0 0.0 8.0 0.00 0.00 0.00 58 1013.9
20260503180038 20 111 3.2 8.0 0.00 0.00 0.00 57 1013.9
20260503175521 21 71 0.0 3.2 0.00 0.00 0.00 57 1014.0
20260503175024 20 0 0.0 4.8 0.00 0.00 0.00 58 1014.1
20260503174552 20 61 0.0 4.8 0.00 0.00 0.00 59 1014.2
20260503174022 20 0 0.0 4.8 0.00 0.00 0.00 59 1014.2
20260503173521 20 116 0.0 4.8 0.00 0.00 0.00 58 1014.2
20260503173041 20 70 0.0 9.7 0.00 0.00 0.00 58 1014.2
20260503172522 19 0 0.0 9.7 0.00 0.00 0.00 61 1014.2
20260503172022 19 115 1.6 9.7 0.00 0.00 0.00 59 1014.3
20260503171540 19 103 1.6 9.7 0.00 0.00 0.00 60 1014.3
20260503171023 19 0 0.0 6.4 0.00 0.00 0.00 59 1014.4
20260503170522 19 0 1.6 6.4 0.00 0.00 0.00 59 1014.3
20260503150522 13 0 0.0 3.2 0.00 0.00 0.00 74 1014.7
20260503131021 11 0 0.0 3.2 0.00 0.00 0.00 84 1014.7
20260503130521 11 0 0.0 3.2 0.00 0.00 0.00 85 1014.7
20260503110521 12 224 0.0 8.0 0.00 0.00 0.00 77 1015.0
20260503081546 13 0 0.0 8.0 0.00 0.00 0.00 82 1015.6
20260503081021 13 0 0.0 3.2 0.00 0.00 0.00 83 1015.5
20260503080522 13 0 0.0 3.2 0.00 0.00 0.00 82 1015.4
20260503072522 14 0 0.0 9.7 0.00 0.00 0.00 81 1015.4
20260503072024 14 0 0.0 9.7 0.00 0.00 0.00 81 1015.3
20260503071544 14 225 1.6 8.0 0.00 0.00 0.00 82 1015.2
20260503071021 14 0 0.0 3.2 0.00 0.00 0.00 82 1015.2
20260503070521 15 0 0.0 3.2 0.00 0.00 0.00 81 1015.2
20260503055020 13 0 0.0 0.0 0.00 0.00 0.00 84 1015.2
20260503054539 13 0 0.0 0.0 0.00 0.00 0.00 84 1015.2
20260503054023 14 0 0.0 1.6 0.00 0.00 0.00 83 1015.2
20260503053521 14 0 0.0 1.6 0.00 0.00 0.00 84 1015.2
20260503053038 14 0 0.0 1.6 0.00 0.00 0.00 83 1015.2
20260503052521 14 0 0.0 3.2 0.00 0.00 0.00 83 1015.2
20260503052026 14 0 0.0 3.2 0.00 0.00 0.00 83 1015.2
20260503051538 14 0 0.0 3.2 0.00 0.00 0.00 83 1015.2
20260503051021 14 0 0.0 0.0 0.00 0.00 0.00 84 1015.2
20260503050520 14 0 0.0 0.0 0.00 0.00 0.00 84 1015.2
20260503050035 14 0 0.0 0.0 0.00 0.00 0.00 83 1015.2
20260503045522 14 0 0.0 0.0 0.00 0.00 0.00 83 1015.2
20260503045019 14 0 0.0 0.0 0.00 0.00 0.00 83 1015.2
20260503044546 14 0 0.0 0.0 0.00 0.00 0.00 82 1015.2
20260503044021 15 0 0.0 0.0 0.00 0.00 0.00 82 1015.1
20260503043520 15 0 0.0 0.0 0.00 0.00 0.00 82 1015.1
20260503043039 15 0 0.0 0.0 0.00 0.00 0.00 82 1015.0
20260503042521 15 0 0.0 0.0 0.00 0.00 0.00 82 1015.0
20260503042021 15 0 0.0 0.0 0.00 0.00 0.00 81 1014.9
20260503041538 15 0 0.0 0.0 0.00 0.00 0.00 81 1014.9
20260503041021 15 0 0.0 0.0 0.00 0.00 0.00 81 1014.9
20260503040520 15 0 0.0 0.0 0.00 0.00 0.00 80 1014.7
20260503040039 15 0 0.0 0.0 0.00 0.00 0.00 80 1014.7
20260503035520 15 0 0.0 0.0 0.00 0.00 0.00 80 1014.5
20260503035021 16 0 0.0 0.0 0.00 0.00 0.00 80 1014.5
20260503034558 16 0 0.0 1.6 0.00 0.00 0.00 80 1014.4
20260503034022 16 0 0.0 1.6 0.00 0.00 0.00 79 1014.4
20260503033520 16 0 0.0 1.6 0.00 0.00 0.00 79 1014.2
20260503033051 16 0 0.0 1.6 0.00 0.00 0.00 79 1014.2
20260503032520 17 0 0.0 1.6 0.00 0.00 0.00 78 1014.0
20260503032020 17 0 0.0 1.6 0.00 0.00 0.00 78 1014.0
20260503031539 17 0 0.0 0.0 0.00 0.00 0.00 78 1013.9
20260503031020 17 0 0.0 0.0 0.00 0.00 0.00 77 1013.9
20260503030524 17 0 0.0 0.0 0.00 0.00 0.00 76 1013.8
20260503030043 17 0 0.0 0.0 0.00 0.00 0.00 76 1013.7
20260503025521 17 0 0.0 3.2 0.00 0.00 0.00 76 1013.7
20260503025021 17 0 0.0 3.2 0.00 0.00 0.00 76 1013.6
20260503024538 17 0 0.0 3.2 0.00 0.00 0.00 76 1013.6
20260503024021 17 0 0.0 1.6 0.00 0.00 0.00 76 1013.5
20260503023521 17 0 0.0 1.6 0.00 0.00 0.00 75 1013.4
20260503023043 18 246 0.0 3.2 0.00 0.00 0.00 75 1013.3
20260503022521 18 0 0.0 3.2 0.00 0.00 0.00 75 1013.3
20260503022020 18 0 0.0 1.6 0.00 0.00 0.00 75 1013.3
20260503021539 18 0 0.0 1.6 0.00 0.00 0.00 74 1013.4
20260503021021 18 0 0.0 1.6 0.00 0.00 0.00 74 1013.3
20260503020520 18 0 0.0 1.6 0.00 0.00 0.00 73 1013.3
20260503020039 18 0 0.0 3.2 0.00 0.00 0.00 72 1013.3
20260503015521 19 0 0.0 3.2 0.00 0.00 0.00 71 1013.3
20260503015020 19 0 0.0 1.6 0.00 0.00 0.00 71 1013.2
20260503014541 20 0 0.0 3.2 0.00 0.00 0.00 69 1013.3
20260503014020 20 0 0.0 4.8 0.00 0.00 0.00 68 1013.4
20260503013520 20 263 1.6 4.8 0.00 0.00 0.00 68 1013.4
20260503013038 20 250 1.6 4.8 0.00 0.00 0.00 67 1013.3
20260503012522 20 256 1.6 4.8 0.00 0.00 0.00 66 1013.3
20260503012022 21 231 0.0 3.2 0.00 0.00 0.00 65 1013.4
20260503011541 21 0 0.0 3.2 0.00 0.00 0.00 64 1013.3
20260503011020 21 265 0.0 4.8 0.00 0.00 0.00 63 1013.2
20260503010521 21 0 0.0 4.8 0.00 0.00 0.00 62 1013.2
20260503010041 22 0 0.0 4.8 0.00 0.00 0.00 63 1013.2
20260503005520 22 128 0.0 4.8 0.00 0.00 0.00 61 1013.4
20260503005022 22 0 0.0 6.4 0.00 0.00 0.00 61 1013.3
20260503004539 22 0 0.0 6.4 0.00 0.00 0.00 61 1013.4
20260503004021 22 0 0.0 4.8 0.00 0.00 0.00 62 1013.4
20260503003521 22 5 0.0 3.2 0.00 0.00 0.00 60 1013.4
20260503003049 22 0 0.0 3.2 0.00 0.00 0.00 60 1013.4
20260503002520 22 0 0.0 6.4 0.00 0.00 0.00 60 1013.3
20260503002023 22 236 0.0 6.4 0.00 0.00 0.00 60 1013.4
20260503001605 22 336 0.0 4.8 0.00 0.00 0.00 59 1013.4
20260503001019 22 0 0.0 4.8 0.00 0.00 0.00 59 1013.4
20260503000525 22 88 1.6 4.8 0.00 0.00 0.00 59 1013.4
20260503000049 22 86 0.0 3.2 0.00 0.00 0.00 58 1013.5
20260502235521 22 0 0.0 3.2 0.00 0.00 0.00 57 1013.6
20260502235022 22 272 0.0 3.2 0.00 0.00 0.00 58 1013.6
20260502234544 22 0 0.0 4.8 0.00 0.00 0.00 57 1013.6
20260502234021 22 0 0.0 4.8 0.00 0.00 0.00 58 1013.6
20260502233519 22 249 1.6 4.8 0.00 0.00 0.00 57 1013.7
20260502233038 22 0 0.0 4.8 0.00 0.00 0.00 57 1013.7
20260502232522 22 240 1.6 6.4 0.00 0.00 0.00 56 1013.8
20260502232021 22 0 1.6 6.4 0.00 0.00 0.00 57 1014.0
20260502231538 22 5 0.0 4.8 0.00 0.00 0.00 58 1014.1
20260502231022 23 0 1.6 4.8 0.00 0.00 0.00 56 1014.2
20260502230522 22 144 1.6 6.4 0.00 0.00 0.00 57 1014.1
20260502230038 22 0 1.6 6.4 0.00 0.00 0.00 57 1014.2
20260502225521 23 302 0.0 6.4 0.00 0.00 0.00 56 1014.3
20260502225023 22 350 0.0 6.4 0.00 0.00 0.00 57 1014.3
20260502224542 22 283 0.0 6.4 0.00 0.00 0.00 57 1014.4
20260502224023 22 272 0.0 6.4 0.00 0.00 0.00 56 1014.5
20260502223525 22 210 0.0 6.4 0.00 0.00 0.00 57 1014.5
20260502223039 22 0 0.0 6.4 0.00 0.00 0.00 57 1014.6
20260502222523 22 0 0.0 6.4 0.00 0.00 0.00 59 1014.6
20260502222022 22 96 1.6 12.9 0.00 0.00 0.00 57 1014.7
20260502221542 21 0 0.0 12.9 0.00 0.00 0.00 57 1014.7
20260502221022 21 98 1.6 8.0 0.00 0.00 0.00 58 1014.6
20260502220521 22 304 0.0 3.2 0.00 0.00 0.00 58 1014.7
20260502220039 22 0 0.0 8.0 0.00 0.00 0.00 58 1014.7
20260502215522 21 0 1.6 9.7 0.00 0.00 0.00 59 1014.8
20260502215021 21 88 1.6 9.7 0.00 0.00 0.00 59 1014.9
20260502214545 21 59 1.6 9.7 0.00 0.00 0.00 57 1014.9
20260502214020 21 59 3.2 9.7 0.00 0.00 0.00 59 1014.9
20260502213520 21 0 1.6 11.3 0.00 0.00 0.00 59 1014.9
20260502213043 21 108 0.0 11.3 0.00 0.00 0.00 57 1014.9
20260502212520 21 41 3.2 11.3 0.00 0.00 0.00 59 1015.0
20260502212021 20 104 1.6 9.7 0.00 0.00 0.00 60 1015.0
20260502211539 21 123 1.6 9.7 0.00 0.00 0.00 62 1015.0
20260502211021 20 0 0.0 9.7 0.00 0.00 0.00 59 1015.1
20260502210521 20 0 1.6 9.7 0.00 0.00 0.00 60 1015.1
20260502210043 20 71 0.0 9.7 0.00 0.00 0.00 61 1015.1
20260502205521 20 260 0.0 9.7 0.00 0.00 0.00 60 1015.1
20260502205022 20 112 0.0 9.7 0.00 0.00 0.00 60 1015.1
20260502204542 20 0 0.0 11.3 0.00 0.00 0.00 62 1015.2
20260502204021 20 113 1.6 11.3 0.00 0.00 0.00 61 1015.4
20260502203521 20 132 3.2 11.3 0.00 0.00 0.00 61 1015.4
20260502203038 20 91 3.2 9.7 0.00 0.00 0.00 60 1015.3
20260502202520 20 245 0.0 8.0 0.00 0.00 0.00 62 1015.4
20260502202021 20 293 1.6 9.7 0.00 0.00 0.00 62 1015.4
20260502201533 18 107 3.2 9.7 0.00 0.00 0.00 63 1015.5
20260502201021 19 116 1.6 9.7 0.00 0.00 0.00 62 1015.5
20260502200521 19 0 3.2 9.7 0.00 0.00 0.00 63 1015.5